Columbia, MO

12:55 AM CST on January 23, 2018 (GMT -0600)
Columbia Regional

Weather History for KCOU - March, 2013

Change the Weather History Date:

Sunday, March 17, 2013

  Actual Average Record
Temperature  
Mean Temperature 36 °F 45 °F  
Max Temperature 37 °F 56 °F 83 °F (1894)
Min Temperature 34 °F 34 °F 8 °F (1906)
Degree Days  
Heating Degree Days 29 20  
Month to date heating degree days 452 390  
Since 1 July heating degree days 4035 4336  
Cooling Degree Days 0 0  
Month to date cooling degree days 0 0  
Year to date cooling degree days 1 0  
Moisture  
Dew Point 32 °F    
Average Humidity 88    
Maximum Humidity 100    
Minimum Humidity 76    
Precipitation  
Precipitation 0.35 in 0.10 in 1.19 in (2008)
Month to date precipitation 1.93 1.48  
Year to date precipitation 8.17 5.65  
Snow  
Snow T in 0.10 in 2.40 in (1924)
Month to date snowfall 0.3 1.3  
Since 1 July snowfall 25.0 17.4  
Snow Depth 0.00 in    
Sea Level Pressure  
Sea Level Pressure 29.97 in    
Wind  
Wind Speed 13 mph (ENE)    
Max Wind Speed 21 mph    
Max Gust Speed 26 mph    
Visibility 8 miles    
Events Rain    
T = Trace of Precipitation, MM = Missing Value Source: NWS Daily Summary

Daily Weather History Graph

Daily Weather History Graph

Search for Another Location

Airport or City:

Trip Planner

Search our weather history database for the weather conditions in past years. The results will help you decide how hot, cold, wet, or windy it might be!

Date:

Astronomy

Mar. 17, 2013 Rise Set
Actual Time 7:16 AM CDT 7:18 PM CDT
Civil Twilight 6:50 AM CDT 7:44 PM CDT
Nautical Twilight 6:19 AM CDT 8:15 PM CDT
Astronomical Twilight 5:47 AM CDT 8:47 PM CDT
Moon 10:32 AM CDT (3/17) 12:23 AM CDT (3/17)
Length of Visible Light 12h 54m
Length of Day
12h 01m
Waxing Crescent, 31% of the Moon is Illuminated
Mar 17
Waxing Crescent
Mar 19
First Quarter
Mar 27
Full
Apr 2
Last Quarter
Apr 10
New

Hourly Weather History & Observations

Time (CDT) Temp. Windchill Dew Point Humidity Pressure Visibility Wind Dir Wind Speed Gust Speed Precip Events Conditions
12:54 AM 37.0 °F 28.5 °F 32.0 °F 82% 30.07 in 10.0 mi NNE 13.8 mph - N/A   Overcast
1:18 AM 37.0 °F 28.9 °F 32.0 °F 82% 30.06 in 10.0 mi NE 12.7 mph - N/A   Overcast
1:36 AM 37.0 °F 29.8 °F 32.0 °F 82% 30.05 in 10.0 mi NE 10.4 mph - N/A   Overcast
1:54 AM 37.0 °F 29.3 °F 32.0 °F 82% 30.07 in 10.0 mi NE 11.5 mph 23.0 mph N/A   Overcast
2:21 AM 36.0 °F 27.5 °F 32.0 °F 86% 30.05 in 9.0 mi NE 12.7 mph 23.0 mph 0.00 in   Overcast
2:54 AM 36.0 °F 27.5 °F 32.0 °F 86% 30.06 in 10.0 mi NE 12.7 mph - 0.00 in   Overcast
3:50 AM 35.6 °F 28.0 °F 32.0 °F 87% 30.03 in 8.0 mi NE 10.4 mph - N/A   Overcast
3:54 AM 35.1 °F 25.5 °F 32.0 °F 89% 30.05 in 9.0 mi NE 15.0 mph - N/A   Overcast
4:54 AM 35.1 °F 25.9 °F 30.9 °F 85% 30.06 in 10.0 mi NNE 13.8 mph - N/A   Overcast
5:54 AM 35.1 °F 25.5 °F 30.9 °F 85% 30.05 in 10.0 mi NE 15.0 mph - N/A   Overcast
6:31 AM 34.0 °F 24.6 °F 30.0 °F 85% 30.03 in 10.0 mi ENE 13.8 mph 23.0 mph N/A   Overcast
6:54 AM 34.0 °F 24.6 °F 30.0 °F 85% 30.06 in 10.0 mi East 13.8 mph - N/A   Overcast
7:27 AM 35.1 °F 27.4 °F 30.9 °F 85% 30.05 in 9.0 mi East 10.4 mph - N/A   Overcast
7:50 AM 35.6 °F 28.0 °F 30.2 °F 81% 30.04 in 10.0 mi East 10.4 mph - 0.00 in   Overcast
7:54 AM 35.1 °F 26.4 °F 30.0 °F 82% 30.06 in 10.0 mi East 12.7 mph - 0.00 in   Overcast
8:30 AM 35.1 °F 25.2 °F 30.0 °F 82% 30.02 in 10.0 mi East 16.1 mph - N/A   Overcast
8:46 AM 35.1 °F 25.9 °F 30.0 °F 82% 30.04 in 10.0 mi East 13.8 mph - N/A   Overcast
8:54 AM 34.0 °F 24.6 °F 30.0 °F 85% 30.06 in 10.0 mi East 13.8 mph - N/A   Overcast
9:54 AM 34.0 °F 25.5 °F 30.0 °F 85% 30.06 in 9.0 mi East 11.5 mph - 0.00 in   Overcast
10:54 AM 34.0 °F 24.2 °F 28.9 °F 82% 30.05 in 10.0 mi ENE 15.0 mph - N/A   Overcast
11:54 AM 36.0 °F 27.5 °F 30.0 °F 79% 30.04 in 10.0 mi East 12.7 mph - N/A   Overcast
12:54 PM 37.0 °F 28.5 °F 30.0 °F 76% 30.00 in 10.0 mi ENE 13.8 mph - 0.00 in   Overcast
1:54 PM 35.1 °F 27.9 °F 30.9 °F 85% 29.98 in 6.0 mi East 9.2 mph - 0.01 in Rain Light Rain
2:54 PM 35.1 °F 26.4 °F 33.1 °F 92% 29.94 in 6.0 mi East 12.7 mph - 0.03 in Rain Light Rain
3:06 PM 35.1 °F 29.3 °F 33.1 °F 92% 29.93 in 6.0 mi East 6.9 mph - 0.00 in Rain Light Rain
3:30 PM 35.1 °F 27.4 °F 33.1 °F 92% 29.90 in 2.5 mi East 10.4 mph - 0.07 in Rain Rain
3:49 PM 35.6 °F 27.5 °F 33.8 °F 93% 29.89 in 3.0 mi East 11.5 mph - 0.12 in Rain Light Rain
3:54 PM 35.1 °F 26.4 °F 33.1 °F 92% 29.90 in 4.0 mi East 12.7 mph - 0.12 in Rain Light Rain
4:19 PM 35.1 °F 25.9 °F 34.0 °F 96% 29.89 in 6.0 mi East 13.8 mph - 0.01 in Rain Light Rain
4:49 PM 35.6 °F 26.6 °F 33.8 °F 93% 29.87 in 7.0 mi East 13.8 mph 21.9 mph 0.02 in Rain Light Rain
4:54 PM 35.1 °F 25.9 °F 33.1 °F 92% 29.89 in 6.0 mi East 13.8 mph - 0.03 in Rain Light Rain
5:54 PM 34.0 °F 24.2 °F 33.1 °F 96% 29.86 in 6.0 mi ENE 15.0 mph 21.9 mph 0.06 in Rain Light Rain
6:54 PM 34.0 °F 23.8 °F 32.0 °F 92% 29.84 in 8.0 mi East 16.1 mph 25.3 mph 0.07 in Rain Light Rain
7:54 PM 34.0 °F 25.0 °F 32.0 °F 92% 29.83 in 10.0 mi East 12.7 mph - 0.00 in Rain Light Rain
8:54 PM 34.0 °F 25.0 °F 33.1 °F 96% 29.83 in 10.0 mi East 12.7 mph - 0.00 in   Overcast
9:54 PM 35.1 °F 25.9 °F 33.1 °F 92% 29.82 in 7.0 mi ENE 13.8 mph - 0.01 in Rain Light Rain
10:54 PM 35.1 °F 26.4 °F 33.1 °F 92% 29.80 in 10.0 mi ENE 12.7 mph - 0.01 in Rain Light Rain
11:54 PM 35.1 °F 26.9 °F 33.1 °F 92% 29.77 in 10.0 mi East 11.5 mph - 0.01 in   Overcast